Regional Weather Roundup
Issued by NWS

Home | Current Version | Previous Version | Text Only | Print | Product List | Glossary On
Versions: 1 2 3 4 5 6 7 8 9 10 11 12 13 14 15 16 17 18 19 20 21 22 23 24 25 26 27 28 29 30 31 32 33 34 35 36 37 38 39 40 41 42 43 44 45 46 47 48 49 50
000
ASUS44 KBMX 201610
RWRAL

ALABAMA REGIONAL WEATHER ROUNDUP
NATIONAL WEATHER SERVICE BIRMINGHAM AL
1100 AM CDT SAT SEP 20 2014

NOTE: "FAIR" INDICATES FEW OR NO CLOUDS BELOW 12,000 FEET
WITH NO SIGNIFICANT WEATHER AND/OR OBSTRUCTIONS TO VISIBILITY.

THE REMARK "TC" DENOTES TEMPERATURE IN DEGREES CELSIUS.

ALZ001>011-014-016>018-020-201700-
NORTH ALABAMA

CITY           SKY/WX    TMP DP  RH WIND       PRES   REMARKS
MUSCLE SHOALS  SUNNY     80  65  59 SE7       30.15S
HUNTSVILLE     SUNNY     81  63  54 SE14      30.14F
DECATUR        SUNNY     81  62  52 SE12G18   30.15F
HALEYVILLE     FAIR      78  66  66 SE7       30.17S
GADSDEN        PTSUNNY   75  63  64 E9G16     30.15F
$$

ALZ012-013-022-023-030>036-040>044-201700-
WEST CENTRAL ALABAMA

CITY           SKY/WX    TMP DP  RH WIND       PRES   REMARKS
TUSCALOOSA     SUNNY     81  65  58 VRB7      30.11S
$$

ALZ015-024>027-033>036-040>044-201700-
CENTRAL ALABAMA

CITY           SKY/WX    TMP DP  RH WIND       PRES   REMARKS
BIRMINGHAM     MOSUNNY   79  64  60 NE9       30.15F
MONTGOMERY     CLOUDY    76  65  68 E10       30.11S
SHELBY CO ARPT SUNNY     77  65  66 E8        30.13S
MAXWELL AFB    CLOUDY    76  66  71 NE9       30.11R
GREENVILLE     CLOUDY    75  65  70 E12       30.09S
$$

ALZ019-021-028-029-037-038-045>048-201700-
EAST CENTRAL ALABAMA

CITY           SKY/WX    TMP DP  RH WIND       PRES   REMARKS
ANNISTON       CLOUDY    76  64  66 E13       30.15S
ALEXANDER CITY PTSUNNY   76  67  72 NE6       30.14S
AUBURN         CLOUDY    72  61  68 NE12      30.16S
$$

ALZ051>064-201700-
SOUTHWEST ALABAMA

CITY           SKY/WX    TMP DP  RH WIND       PRES   REMARKS
MOBILE         MOSUNNY   81  69  67 NE9       30.05R
BROOKLEY FIELD MOSUNNY   81  70  69 NE8       30.04R
EVERGREEN      CLOUDY    76  68  76 NE9       30.08S
$$

ALZ049-050-065>069-201700-
SOUTHEAST ALABAMA

CITY           SKY/WX    TMP DP  RH WIND       PRES   REMARKS
DOTHAN         CLOUDY    73  66  78 NE13      30.11R
OZARK          CLOUDY    75  67  75 NE13G18   30.07S
TROY           CLOUDY    74  66  76 E10       30.10S
EUFAULA        CLOUDY    75  65  70 NE7       30.09S
$$


USA.gov is the U.S. government's official web portal to all federal, state and local government web resources and services.